Regional Weather Roundup
Issued by NWS Sioux Falls, SD

Home | Current Version | Previous Version | Graphics & Text | Print | Product List | Glossary On
Versions: 1 2 3 4 5 6 7 8 9 10 11 12 13 14 15 16 17 18 19 20 21 22 23 24 25 26 27 28 29 30 31 32 33 34 35 36 37 38 39 40 41 42 43 44 45 46 47 48 49 50
000
ASUS43 KFSD 071510
RWRFSD

WEATHER ROUNDUP FOR SE SOUTH DAKOTA/SW MINNESOTA/NW IOWA
NATIONAL WEATHER SERVICE SIOUX FALLS SD
1000 AM CDT TUE JUL 07 2015

NOTE: "FAIR" INDICATES FEW OR NO CLOUDS BELOW 12,000 FEET WITH NO
SIGNIFICANT WEATHER AND OR OBSTRUCTIONS TO VISIBILITY.


SDZ038>040-050-052>070-071600-
SOUTHEAST SOUTH DAKOTA

CITY           SKY/WX    TMP DP  RH WIND       PRES   REMARKS
BROOKINGS      MOSUNNY   57  45  62 E8        30.23S
CHAMBERLAIN    SUNNY     62  53  71 E10       30.21R
HURON          SUNNY     61  47  59 E10       30.21S
MADISON        FAIR      57  48  72 E14       30.22S
MITCHELL       SUNNY     62  52  69 E9        30.22S
SIOUX FALLS    MOSUNNY   61  46  57 NE14      30.22R
WINNER         FAIR      66  56  70 SE12      30.20S HAZE
YANKTON        CLOUDY    61  48  63 E8        30.21R
$$

MNZ071-072-080-081-089-090-097-098-071600-
SOUTHWEST MINNESOTA

CITY           SKY/WX    TMP DP  RH WIND       PRES   REMARKS
FAIRMONT       MOSUNNY   59  45  58 N14       30.18S
JACKSON        SUNNY     59  46  63 N16       30.19S
LUVERNE        SUNNY     61  50  67 NE8       30.21S
MARSHALL       MOSUNNY   61  45  55 NE12        N/A
MONTEVIDEO     SUNNY     64  50  59 E9          N/A
PIPESTONE      SUNNY     57  46  67 E8        30.21S
REDWOOD FALLS  SUNNY     62  46  55 NE10      30.20S
TRACY          SUNNY     61  49  66 NE8       30.21S
WINDOM         SUNNY     61  46  59 N10G18    30.20S
WORTHINGTON    MOSUNNY   57  46  67 NE14      30.20S
$$

IAZ001>003-012>014-020>022-031-032-NEZ013-014-SDZ071-071600-
NORTHWEST IOWA

CITY           SKY/WX    TMP DP  RH WIND       PRES   REMARKS
CHEROKEE       SUNNY     60  51  70 N12       30.19S
DENISON        SUNNY     61  48  63 N15       30.15F
ESTHERVILLE    SUNNY     59  47  64 N16       30.18S
LE MARS        SUNNY     61  48  63 NE12      30.21S
ORANGE CITY    SUNNY     59  48  67 NE5       30.20S
SHELDON        SUNNY     61  57  88 NE12      30.19S
SIOUX CITY     SUNNY     64  46  52 NE12G17   30.21R
SPENCER        MOSUNNY   62  46  55 NE13      30.19R
STORM LAKE     SUNNY     59  50  72 NE10G20   30.19S
$$

ABBREVIATIONS USED IN REMARKS
   TC - TEMPERATURE IN CELSIUS
  WCI - WIND CHILL INDEX
   HX - HEAT INDEX
  VSB - VISIBILITY



USA.gov is the U.S. government's official web portal to all federal, state and local government web resources and services.